Tehachapi, CA

9:55 PM PDT on September 24, 2016 (GMT -0700)
Tehachapi Municipal

Weather History for KTSP - October, 2013

Change the Weather History Date:

Tuesday, October 1, 2013

  Actual Average Record
Temperature  
Mean Temperature 60 °F -  
Max Temperature 71 °F 77 °F 89 °F (2012)
Min Temperature 48 °F 47 °F 39 °F (2014)
Degree Days  
Heating Degree Days 6    
Growing Degree Days 10 (Base 50)    
Moisture  
Dew Point 46 °F    
Average Humidity 63    
Maximum Humidity 87    
Minimum Humidity 35    
Precipitation  
Precipitation 0.00 in - - ()
Sea Level Pressure  
Sea Level Pressure 30.04 in    
Wind  
Wind Speed 11 mph (WNW)    
Max Wind Speed 20 mph    
Max Gust Speed 24 mph    
Visibility 10 miles    
Events      
Averages and records for this station are not official NWS values.
T = Trace of Precipitation, MM = Missing Value Source: NWS Daily Summary

Daily Weather History Graph

Daily Weather History Graph

Search for Another Location

Airport or City:

Trip Planner

Search our weather history database for the weather conditions in past years. The results will help you decide how hot, cold, wet, or windy it might be!

Date:

Astronomy

Oct. 01, 2013 Rise Set
Actual Time 6:48 AM PDT 6:37 PM PDT
Civil Twilight 6:23 AM PDT 7:02 PM PDT
Nautical Twilight 5:54 AM PDT 7:31 PM PDT
Astronomical Twilight 5:24 AM PDT 8:01 PM PDT
Moon 3:34 AM PDT (10/1) 4:38 PM PDT (10/1)
Length of Visible Light 12h 38m
Length of Day
11h 48m
Waning Crescent, 11% of the Moon is Illuminated
Oct 1
Waning Crescent
Oct 4
New
Oct 11
First Quarter
Oct 18
Full
Oct 26
Last Quarter

Hourly Weather History & Observations

Time (PDT) Temp. Dew Point Humidity Pressure Visibility Wind Dir Wind Speed Gust Speed Precip Events Conditions
12:15 AM 53.6 °F 46.4 °F 77% 30.05 in 10.0 mi NW 11.5 mph - N/A   Clear
12:35 AM 53.6 °F 46.4 °F 77% 30.06 in 10.0 mi NNW 11.5 mph - N/A   Clear
12:55 AM 55.4 °F 46.4 °F 72% 30.06 in 10.0 mi WNW 9.2 mph - N/A   Clear
1:15 AM 55.4 °F 46.4 °F 72% 30.05 in 10.0 mi NW 12.7 mph - N/A   Clear
1:35 AM 55.4 °F 46.4 °F 72% 30.06 in 10.0 mi WNW 9.2 mph - N/A   Clear
1:55 AM 55.4 °F 46.4 °F 72% 30.06 in 10.0 mi WNW 10.4 mph - N/A   Clear
2:15 AM 53.6 °F 44.6 °F 72% 30.06 in 10.0 mi WNW 10.4 mph - N/A   Clear
2:35 AM 55.4 °F 44.6 °F 67% 30.06 in 10.0 mi WNW 10.4 mph - N/A   Clear
2:55 AM 53.6 °F 44.6 °F 72% 30.05 in 10.0 mi WNW 6.9 mph - N/A   Clear
3:15 AM 53.6 °F 44.6 °F 72% 30.04 in 10.0 mi WNW 9.2 mph - N/A   Clear
3:35 AM 53.6 °F 44.6 °F 72% 30.04 in 10.0 mi WNW 8.1 mph - N/A   Clear
3:55 AM 53.6 °F 44.6 °F 72% 30.04 in 10.0 mi WNW 9.2 mph - N/A   Clear
4:15 AM 53.6 °F 44.6 °F 72% 30.04 in 10.0 mi WNW 8.1 mph - N/A   Clear
4:35 AM 53.6 °F 44.6 °F 72% 30.04 in 10.0 mi WNW 9.2 mph - N/A   Clear
4:55 AM 53.6 °F 44.6 °F 72% 30.04 in 10.0 mi WNW 8.1 mph - N/A   Clear
5:15 AM 53.6 °F 46.4 °F 77% 30.05 in 10.0 mi WNW 10.4 mph - N/A   Clear
5:35 AM 51.8 °F 46.4 °F 82% 30.05 in 10.0 mi WNW 9.2 mph - N/A   Clear
5:55 AM 51.8 °F 44.6 °F 76% 30.05 in 10.0 mi WNW 6.9 mph - N/A   Clear
6:15 AM 51.8 °F 46.4 °F 82% 30.06 in 10.0 mi WNW 6.9 mph - N/A   Clear
6:35 AM 50.0 °F 44.6 °F 82% 30.06 in 10.0 mi WNW 3.5 mph - N/A   Clear
6:55 AM 48.2 °F 44.6 °F 87% 30.06 in 8.0 mi West 3.5 mph - N/A   Clear
7:15 AM 50.0 °F 44.6 °F 82% 30.06 in 9.0 mi Calm Calm - N/A   Clear
7:35 AM 50.0 °F 46.4 °F 87% 30.06 in 8.0 mi NNW 3.5 mph - N/A   Clear
7:55 AM 55.4 °F 46.4 °F 72% 30.06 in 9.0 mi NW 8.1 mph - N/A   Clear
8:15 AM 57.2 °F 46.4 °F 67% 30.06 in 10.0 mi NW 8.1 mph - N/A   Clear
8:35 AM 59.0 °F 46.4 °F 63% 30.07 in 9.0 mi West 4.6 mph - N/A   Clear
8:55 AM 59.0 °F 46.4 °F 63% 30.07 in 9.0 mi NW 8.1 mph - N/A   Clear
9:15 AM 59.0 °F 44.6 °F 59% 30.07 in 9.0 mi NW 8.1 mph - N/A   Clear
9:35 AM 62.6 °F 44.6 °F 52% 30.07 in 9.0 mi NW 10.4 mph - N/A   Clear
9:55 AM 62.6 °F 46.4 °F 55% 30.07 in 9.0 mi NW 11.5 mph - N/A   Clear
10:15 AM 64.4 °F 44.6 °F 49% 30.07 in 9.0 mi NW 13.8 mph 17.3 mph N/A   Clear
10:35 AM 64.4 °F 44.6 °F 49% 30.06 in 8.0 mi NW 15.0 mph - N/A   Clear
10:55 AM 66.2 °F 42.8 °F 43% 30.06 in 8.0 mi NW 15.0 mph - N/A   Clear
11:15 AM 66.2 °F 42.8 °F 43% 30.06 in 8.0 mi NW 16.1 mph - N/A   Clear
11:35 AM 66.2 °F 42.8 °F 43% 30.06 in 8.0 mi NW 17.3 mph - N/A   Clear
11:55 AM 68.0 °F 44.6 °F 43% 30.06 in 8.0 mi NW 16.1 mph - N/A   Clear
12:15 PM 68.0 °F 44.6 °F 43% 30.05 in 10.0 mi NW 15.0 mph - N/A   Clear
12:35 PM 69.8 °F 42.8 °F 38% 30.05 in 10.0 mi NW 16.1 mph - N/A   Clear
12:55 PM 71.6 °F 44.6 °F 38% 30.04 in 9.0 mi NW 12.7 mph 18.4 mph N/A   Clear
1:15 PM 71.6 °F 42.8 °F 35% 30.04 in 9.0 mi NW 13.8 mph 19.6 mph N/A   Clear
1:35 PM 71.6 °F 44.6 °F 38% 30.03 in 9.0 mi NW 15.0 mph - N/A   Clear
1:55 PM 71.6 °F 46.4 °F 41% 30.02 in 8.0 mi NW 18.4 mph - N/A   Clear
2:15 PM 71.6 °F 46.4 °F 41% 30.02 in 8.0 mi NW 16.1 mph - N/A   Clear
2:35 PM 71.6 °F 46.4 °F 41% 30.02 in 10.0 mi NW 18.4 mph - N/A   Clear
2:55 PM 69.8 °F 46.4 °F 43% 30.02 in 10.0 mi NW 17.3 mph - N/A   Clear
3:15 PM 69.8 °F 46.4 °F 43% 30.01 in 10.0 mi NW 17.3 mph 23.0 mph N/A   Clear
3:35 PM 71.6 °F 46.4 °F 41% 30.01 in 10.0 mi NW 17.3 mph 21.9 mph N/A   Clear
3:55 PM 69.8 °F 46.4 °F 43% 30.01 in 10.0 mi NW 15.0 mph 21.9 mph N/A   Clear
4:15 PM 69.8 °F 44.6 °F 40% 30.01 in 10.0 mi NW 18.4 mph 23.0 mph N/A   Clear
4:35 PM 68.0 °F 46.4 °F 46% 30.00 in 10.0 mi NW 19.6 mph 24.2 mph N/A   Clear
4:55 PM 68.0 °F 46.4 °F 46% 30.01 in 10.0 mi NW 16.1 mph - N/A   Clear
5:15 PM 66.2 °F 46.4 °F 49% 30.00 in 10.0 mi WNW 15.0 mph - N/A   Clear
5:35 PM 64.4 °F 48.2 °F 56% 30.01 in 9.0 mi NW 17.3 mph - N/A   Clear
5:55 PM 64.4 °F 48.2 °F 56% 30.01 in 9.0 mi WNW 13.8 mph 19.6 mph N/A   Clear
6:15 PM 62.6 °F 48.2 °F 59% 30.01 in 10.0 mi WNW 15.0 mph - N/A   Clear
6:35 PM 62.6 °F 48.2 °F 59% 30.01 in 10.0 mi WNW 13.8 mph 19.6 mph N/A   Clear
6:55 PM 60.8 °F 48.2 °F 63% 30.01 in 10.0 mi WNW 11.5 mph - N/A   Clear
7:15 PM 60.8 °F 48.2 °F 63% 30.01 in 10.0 mi WNW 10.4 mph - N/A   Clear
7:35 PM 59.0 °F 48.2 °F 67% 30.01 in 10.0 mi WNW 10.4 mph - N/A   Clear
7:55 PM 59.0 °F 48.2 °F 67% 30.02 in 10.0 mi WNW 10.4 mph - N/A   Clear
8:15 PM 59.0 °F 48.2 °F 67% 30.02 in 10.0 mi WNW 10.4 mph - N/A   Clear
8:35 PM 59.0 °F 48.2 °F 67% 30.03 in 10.0 mi WNW 10.4 mph - N/A   Clear
8:55 PM 57.2 °F 48.2 °F 72% 30.03 in 10.0 mi WNW 12.7 mph - N/A   Clear
9:15 PM 57.2 °F 50.0 °F 77% 30.04 in 10.0 mi WNW 10.4 mph - N/A   Clear
9:35 PM 57.2 °F 48.2 °F 72% 30.04 in 10.0 mi WNW 8.1 mph - N/A   Clear
9:55 PM 55.4 °F 48.2 °F 77% 30.03 in 10.0 mi WNW 9.2 mph - N/A   Clear
10:15 PM 55.4 °F 48.2 °F 77% 30.03 in 10.0 mi WNW 8.1 mph - N/A   Clear
10:35 PM 55.4 °F 48.2 °F 77% 30.03 in 10.0 mi WNW 9.2 mph - N/A   Clear
10:55 PM 55.4 °F 50.0 °F 82% 30.03 in 10.0 mi WNW 6.9 mph - N/A   Clear
11:15 PM 55.4 °F 48.2 °F 77% 30.03 in 9.0 mi WNW 6.9 mph - N/A   Clear
11:35 PM 55.4 °F 50.0 °F 82% 30.03 in 8.0 mi WNW 8.1 mph - N/A   Clear
11:55 PM 55.4 °F 50.0 °F 82% 30.03 in 8.0 mi West 6.9 mph - N/A   Clear